Tulsa, OK

3:16 AM CDT on April 20, 2018 (GMT -0500)
Tulsa International

Weather History for KTUL - January, 2013

Change the Weather History Date:

Thursday, January 17, 2013

  Actual Average Record
Temperature  
Mean Temperature 40 °F 38 °F  
Max Temperature 55 °F 48 °F 73 °F (1952)
Min Temperature 25 °F 27 °F -3 °F (1930)
Degree Days  
Heating Degree Days 25 27  
Month to date heating degree days 469 474  
Since 1 July heating degree days 1721 1902  
Moisture  
Dew Point 27 °F    
Average Humidity 60    
Maximum Humidity 85    
Minimum Humidity 35    
Precipitation  
Precipitation 0.00 in 0.05 in 0.94 in (2004)
Month to date precipitation 0.62 0.88  
Year to date precipitation 0.62 0.88  
Sea Level Pressure  
Sea Level Pressure 30.42 in    
Wind  
Wind Speed 5 mph (North)    
Max Wind Speed 17 mph    
Max Gust Speed 21 mph    
Visibility 10 miles    
Events      
T = Trace of Precipitation, MM = Missing Value Source: NWS Daily Summary

Daily Weather History Graph

Daily Weather History Graph

Search for Another Location

Airport or City:

Astronomy

Jan. 17, 2013 Rise Set
Actual Time 7:33 AM CST 5:34 PM CST
Civil Twilight 7:05 AM CST 6:02 PM CST
Nautical Twilight 6:33 AM CST 6:34 PM CST
Astronomical Twilight 6:03 AM CST 7:04 PM CST
Moon 10:53 AM CST (1/17) No Moon Set
Length of Visible Light 10h 57m
Length of Day
10h 01m
Waxing Crescent, 38% of the Moon is Illuminated
Jan 17
Waxing Crescent
Jan 18
First Quarter
Jan 26
Full
Feb 3
Last Quarter
Feb 10
New

Hourly Weather History & Observations

Time (CST) Temp. Windchill Dew Point Humidity Pressure Visibility Wind Dir Wind Speed Gust Speed Precip Events Conditions
12:53 AM 28.9 °F - 19.9 °F 69% 30.24 in 10.0 mi Calm Calm - N/A   Clear
1:53 AM 30.9 °F - 19.9 °F 64% 30.25 in 10.0 mi Calm Calm - N/A   Clear
2:53 AM 30.9 °F - 19.9 °F 64% 30.27 in 10.0 mi Calm Calm - N/A   Clear
3:53 AM 26.1 °F 21.9 °F 19.9 °F 78% 30.30 in 10.0 mi NW 3.5 mph - N/A   Clear
4:53 AM 26.6 °F 19.1 °F 21.2 °F 80% 30.31 in 10.0 mi NNW 6.9 mph - N/A   Clear
5:53 AM 30.2 °F 22.6 °F 24.8 °F 80% 30.35 in 10.0 mi NW 8.1 mph - N/A   Clear
6:53 AM 28.0 °F 24.2 °F 25.0 °F 88% 30.39 in 10.0 mi NW 3.5 mph - N/A   Clear
7:53 AM 28.0 °F 20.8 °F 25.0 °F 88% 30.42 in 10.0 mi NNW 6.9 mph - N/A   Clear
8:53 AM 36.0 °F 33.3 °F 30.0 °F 79% 30.44 in 9.0 mi NW 3.5 mph - N/A   Clear
9:53 AM 37.9 °F 30.5 °F 31.1 °F 76% 30.47 in 10.0 mi North 11.5 mph - N/A   Clear
10:53 AM 46.0 °F 40.2 °F 32.0 °F 58% 30.48 in 10.0 mi North 12.7 mph - N/A   Clear
11:53 AM 48.9 °F - 30.9 °F 50% 30.46 in 10.0 mi North 11.5 mph - N/A   Clear
12:53 PM 52.0 °F - 30.9 °F 45% 30.45 in 10.0 mi North 9.2 mph 19.6 mph N/A   Clear
1:53 PM 55.0 °F - 28.0 °F 35% 30.43 in 10.0 mi NNW 10.4 mph - N/A   Clear
2:53 PM 55.0 °F - 28.0 °F 35% 30.43 in 10.0 mi North 10.4 mph 20.7 mph N/A   Clear
3:53 PM 53.1 °F - 28.0 °F 38% 30.44 in 10.0 mi NNE 10.4 mph - N/A   Clear
4:53 PM 51.1 °F - 28.0 °F 41% 30.45 in 10.0 mi NE 8.1 mph - N/A   Clear
5:53 PM 48.9 °F - 28.0 °F 44% 30.46 in 10.0 mi NE 4.6 mph - N/A   Clear
6:53 PM 46.0 °F 43.9 °F 28.0 °F 50% 30.47 in 10.0 mi ENE 4.6 mph - N/A   Clear
7:53 PM 42.1 °F - 28.0 °F 58% 30.49 in 10.0 mi Calm Calm - N/A   Clear
8:53 PM 39.0 °F 35.7 °F 27.0 °F 62% 30.48 in 10.0 mi SSE 4.6 mph - N/A   Clear
9:53 PM 37.9 °F - 27.0 °F 65% 30.48 in 10.0 mi Calm Calm - N/A   Clear
10:53 PM 39.0 °F 34.0 °F 27.0 °F 62% 30.48 in 10.0 mi South 6.9 mph - N/A   Clear
11:53 PM 35.1 °F - 27.0 °F 72% 30.48 in 10.0 mi Calm Calm - N/A   Clear